Location: Unspecified
(49.9820°N, 20.4363°E)
Time: 00:58:33
(UTC+02:00)

ISS - Pass Details

Date: 20 July 2018
Orbit: 402 x 408 km, 51.6° (Epoch: 16 July)

Event Time Altitude Azimuth Distance (km) Brightness Sun altitude
Rises 00:38:36 0° 268° (W) 2,324 0.0 -19.3°
Reaches altitude 10° 00:40:42 10° 272° (W) 1,466 -1.0 -19.3°
Maximum altitude 00:43:58 65° 354° (N) 453 -3.4 -19.3°
Drops below altitude 10° 00:47:15 10° 78° (ENE) 1,470 -0.9 -19.3°
Sets 00:49:21 0° 81° (E) 2,332 0.2 -19.3°
